TimeEST,TemperatureF,Dew PointF,Humidity,Sea Level PressureIn,VisibilityMPH,Wind Direction,Wind SpeedMPH,Gust SpeedMPH,PrecipitationIn,Events,Conditions,WindDirDegrees,DateUTC
12:52 AM,19.4,15.8,86,30.22,10.0,Calm,Calm,-,N/A,,Partly Cloudy,0,2014-03-05 05:52:00
1:52 AM,21.9,16.0,78,30.20,9.0,Calm,Calm,-,N/A,,Clear,0,2014-03-05 06:52:00
2:52 AM,21.0,15.1,78,30.21,9.0,Calm,Calm,-,N/A,,Clear,0,2014-03-05 07:52:00
3:52 AM,19.9,15.1,81,30.20,9.0,Calm,Calm,-,N/A,,Clear,0,2014-03-05 08:52:00
4:52 AM,21.0,17.1,85,30.22,8.0,North,4.6,-,N/A,,Clear,360,2014-03-05 09:52:00
5:52 AM,19.9,17.1,89,30.25,7.0,North,6.9,-,N/A,,Partly Cloudy,360,2014-03-05 10:52:00
6:52 AM,21.9,15.1,75,30.26,8.0,NE,4.6,-,N/A,,Partly Cloudy,50,2014-03-05 11:52:00
7:52 AM,21.9,16.0,78,30.28,7.0,NE,4.6,-,N/A,,Clear,50,2014-03-05 12:52:00
8:52 AM,25.0,16.0,69,30.31,7.0,NE,5.8,-,N/A,,Clear,50,2014-03-05 13:52:00
9:52 AM,28.0,16.0,61,30.31,8.0,NE,9.2,-,N/A,,Partly Cloudy,50,2014-03-05 14:52:00
11:52 AM,33.1,17.1,52,30.31,9.0,East,4.6,-,N/A,,Clear,80,2014-03-05 16:52:00
12:52 PM,35.1,16.0,46,30.30,9.0,NNE,9.2,-,N/A,,Partly Cloudy,30,2014-03-05 17:52:00
1:52 PM,37.0,17.1,44,30.27,10.0,NE,9.2,-,N/A,,Partly Cloudy,40,2014-03-05 18:52:00
2:52 PM,37.0,16.0,42,30.26,10.0,NE,10.4,-,N/A,,Mostly Cloudy,40,2014-03-05 19:52:00
3:52 PM,37.0,15.1,41,30.27,10.0,NE,9.2,-,N/A,,Overcast,50,2014-03-05 20:52:00
4:52 PM,37.0,16.0,42,30.27,10.0,NNE,12.7,-,N/A,,Mostly Cloudy,30,2014-03-05 21:52:00
5:52 PM,36.0,18.0,48,30.30,10.0,East,10.4,-,N/A,,Mostly Cloudy,80,2014-03-05 22:52:00
6:52 PM,34.0,17.1,50,30.31,10.0,ENE,15.0,-,N/A,,Overcast,70,2014-03-05 23:52:00
7:52 PM,32.0,17.1,54,30.33,10.0,ENE,10.4,-,N/A,,Overcast,70,2014-03-06 00:52:00
8:52 PM,30.0,19.0,64,30.32,10.0,NE,18.4,-,N/A,,Overcast,50,2014-03-06 01:52:00
9:52 PM,28.0,19.0,69,30.33,10.0,NE,13.8,-,N/A,,Mostly Cloudy,50,2014-03-06 02:52:00
10:52 PM,27.0,18.0,69,30.34,10.0,ENE,16.1,20.7,N/A,,Mostly Cloudy,60,2014-03-06 03:52:00
11:52 PM,26.1,18.0,71,30.33,10.0,ENE,13.8,-,N/A,,Overcast,60,2014-03-06 04:52:00